Radiation Dose at Monitoring Post of Fukushima Daini Nuclear Power Station
Date,Time,MP-1(microSv/h),MP-2(microSv/h),MP-3(microSv/h),MP-4(microSv/h),MP-5(microSv/h),MP-6(microSv/h),MP-7(microSv/h),Wind Direction,Wind Velocity(m/s),Rain
2020/04/28,00:00,0.174,0.160,0.268,0.243,0.257,0.138,0.084,north-northeast,1.8,No
2020/04/28,00:10,0.174,0.160,0.269,0.244,0.257,0.137,0.084,north,1.9,No
2020/04/28,00:20,0.175,0.160,0.269,0.243,0.256,0.138,0.083,north-northeast,1.7,No
2020/04/28,00:30,0.175,0.160,0.269,0.243,0.257,0.138,0.084,north,2.0,No
2020/04/28,00:40,0.175,0.160,0.267,0.244,0.256,0.139,0.084,north,1.2,No
2020/04/28,00:50,0.176,0.160,0.270,0.243,0.256,0.137,0.083,north,2.0,No
2020/04/28,01:00,0.174,0.161,0.268,0.244,0.257,0.138,0.083,north,5.5,No
2020/04/28,01:10,0.174,0.160,0.269,0.244,0.256,0.139,0.084,north-northwest,6.6,No
2020/04/28,01:20,0.176,0.159,0.268,0.244,0.257,0.139,0.084,north-northwest,6.1,No
2020/04/28,01:30,0.175,0.160,0.269,0.245,0.257,0.138,0.083,north-northwest,6.3,No
2020/04/28,01:40,0.175,0.159,0.269,0.244,0.257,0.139,0.084,north-northwest,7.3,No
2020/04/28,01:50,0.175,0.160,0.268,0.244,0.256,0.138,0.084,north-northwest,5.9,No
2020/04/28,02:00,0.175,0.161,0.270,0.244,0.257,0.138,0.083,north-northwest,5.8,No
2020/04/28,02:10,0.174,0.160,0.270,0.244,0.257,0.139,0.084,north-northwest,6.3,No
2020/04/28,02:20,0.175,0.160,0.268,0.243,0.256,0.139,0.084,north-northwest,6.4,No
2020/04/28,02:30,0.175,0.159,0.269,0.243,0.256,0.138,0.083,northwest,6.1,No
2020/04/28,02:40,0.175,0.159,0.268,0.245,0.256,0.138,0.083,north-northwest,6.2,No
2020/04/28,02:50,0.174,0.160,0.268,0.245,0.257,0.137,0.084,north-northwest,6.1,No
2020/04/28,03:00,0.177,0.160,0.269,0.243,0.256,0.137,0.084,northwest,5.6,No
2020/04/28,03:10,0.175,0.159,0.268,0.243,0.257,0.138,0.083,northwest,5.6,No
2020/04/28,03:20,0.174,0.159,0.270,0.244,0.256,0.138,0.084,northwest,4.8,No
2020/04/28,03:30,0.175,0.159,0.268,0.244,0.256,0.137,0.084,northwest,4.5,No
2020/04/28,03:40,0.174,0.159,0.268,0.244,0.255,0.138,0.084,northwest,4.5,No
2020/04/28,03:50,0.175,0.159,0.269,0.244,0.256,0.138,0.084,northwest,4.1,No
2020/04/28,04:00,0.174,0.159,0.269,0.244,0.255,0.136,0.084,northwest,4.1,No
2020/04/28,04:10,0.175,0.160,0.269,0.244,0.256,0.138,0.083,north-northwest,3.7,No
2020/04/28,04:20,0.175,0.159,0.269,0.243,0.255,0.137,0.084,northwest,3.8,No
2020/04/28,04:30,0.174,0.160,0.268,0.243,0.257,0.137,0.083,northwest,2.9,No
2020/04/28,04:40,0.174,0.159,0.268,0.243,0.255,0.137,0.083,northwest,3.4,No
2020/04/28,04:50,0.174,0.158,0.269,0.244,0.256,0.137,0.083,north-northwest,2.9,No
2020/04/28,05:00,0.174,0.159,0.268,0.243,0.255,0.137,0.083,northwest,3.5,No
2020/04/28,05:10,0.173,0.159,0.268,0.243,0.256,0.138,0.083,northwest,3.1,No
2020/04/28,05:20,0.175,0.158,0.268,0.243,0.256,0.137,0.083,north-northwest,2.5,No
2020/04/28,05:30,0.174,0.159,0.268,0.244,0.254,0.137,0.083,north-northwest,2.9,No
2020/04/28,05:40,0.174,0.159,0.268,0.243,0.256,0.137,0.084,north-northwest,2.0,No
2020/04/28,05:50,0.174,0.160,0.268,0.243,0.256,0.136,0.082,northwest,1.3,No
2020/04/28,06:00,0.173,0.158,0.268,0.243,0.256,0.138,0.083,northwest,0.9,No
2020/04/28,06:10,0.175,0.160,0.269,0.243,0.255,0.138,0.084,northwest,1.0,No
2020/04/28,06:20,0.174,0.160,0.268,0.243,0.255,0.138,0.083,northwest,0.7,No
2020/04/28,06:30,0.174,0.158,0.268,0.243,0.255,0.138,0.083,northwest,1.0,No
2020/04/28,06:40,0.175,0.159,0.268,0.243,0.256,0.136,0.083,northwest,1.0,No
2020/04/28,06:50,0.174,0.160,0.270,0.243,0.256,0.136,0.083,north-northwest,1.1,No
2020/04/28,07:00,0.175,0.159,0.267,0.242,0.256,0.138,0.083,north,1.6,No
2020/04/28,07:10,0.173,0.159,0.267,0.242,0.256,0.137,0.083,northeast,0.7,No
2020/04/28,07:20,0.173,0.159,0.266,0.242,0.256,0.138,0.083,northeast,0.9,No
2020/04/28,07:30,0.174,0.158,0.268,0.242,0.256,0.138,0.083,northeast,1.2,No
2020/04/28,07:40,0.173,0.159,0.264,0.242,0.256,0.137,0.082,north-northeast,1.4,No
2020/04/28,07:50,0.174,0.158,0.264,0.241,0.255,0.137,0.083,east-northeast,1.5,No
2020/04/28,08:00,0.173,0.159,0.264,0.241,0.256,0.137,0.083,northeast,1.1,No
2020/04/28,08:10,0.173,0.158,0.268,0.242,0.255,0.136,0.084,east-northeast,1.0,No
2020/04/28,08:20,0.174,0.159,0.266,0.240,0.258,0.136,0.083,north-northeast,1.6,No
2020/04/28,08:30,0.173,0.158,0.268,0.243,0.255,0.136,0.083,east-northeast,1.6,No
2020/04/28,08:40,0.173,0.159,0.267,0.242,0.256,0.137,0.083,northeast,1.5,No
2020/04/28,08:50,0.174,0.158,0.268,0.242,0.255,0.136,0.084,east-northeast,1.7,No
2020/04/28,09:00,0.174,0.160,0.269,0.242,0.257,0.137,0.084,east-northeast,1.7,No
2020/04/28,09:10,0.173,0.159,0.268,0.244,0.255,0.137,0.084,east-northeast,1.9,No
2020/04/28,09:20,0.175,0.160,0.268,0.241,0.256,0.138,0.083,east,2.5,No
2020/04/28,09:30,0.174,0.160,0.268,0.243,0.255,0.136,0.083,east,2.8,No
2020/04/28,09:40,0.174,0.160,0.266,0.242,0.258,0.137,0.082,east-northeast,2.4,No
2020/04/28,09:50,0.173,0.159,0.269,0.242,0.255,0.137,0.084,east-northeast,1.7,No
2020/04/28,10:00,0.174,0.159,0.268,0.244,0.256,0.138,0.083,northeast,1.8,No
2020/04/28,10:10,0.174,0.159,0.268,0.242,0.256,0.136,0.084,northeast,2.1,Yes
2020/04/28,10:20,0.175,0.161,0.268,0.244,0.258,0.139,0.083,east-northeast,1.7,No
2020/04/28,10:30,0.173,0.160,0.267,0.244,0.256,0.137,0.084,east-southeast,2.2,No
2020/04/28,10:40,0.174,0.160,0.266,0.244,0.256,0.138,0.083,east,2.3,No
2020/04/28,10:50,0.174,0.159,0.268,0.242,0.256,0.138,0.084,east,1.1,Yes
2020/04/28,11:00,0.175,0.160,0.267,0.244,0.257,0.139,0.083,southeast,1.5,Yes
2020/04/28,11:10,0.175,0.161,0.270,0.244,0.257,0.140,0.086,south,1.7,Yes
2020/04/28,11:20,0.178,0.162,0.273,0.248,0.261,0.142,0.088,south-southeast,3.2,Yes
2020/04/28,11:30,0.178,0.164,0.272,0.249,0.261,0.144,0.089,south-southeast,4.8,Yes
2020/04/28,11:40,0.180,0.164,0.275,0.248,0.264,0.143,0.089,south-southeast,3.8,No
2020/04/28,11:50,0.178,0.165,0.274,0.249,0.261,0.144,0.088,south,3.0,No
2020/04/28,12:00,0.179,0.162,0.271,0.246,0.261,0.142,0.089,south-southeast,3.3,No
2020/04/28,12:10,0.176,0.163,0.270,0.247,0.256,0.141,0.086,south-southeast,4.5,No
2020/04/28,12:20,0.177,0.162,0.272,0.244,0.259,0.140,0.086,south-southeast,4.9,No
2020/04/28,12:30,0.174,0.163,0.268,0.245,0.257,0.139,0.086,south-southeast,5.3,No
2020/04/28,12:40,0.175,0.161,0.270,0.244,0.257,0.139,0.085,south-southeast,5.7,No
2020/04/28,12:50,0.175,0.160,0.269,0.243,0.258,0.139,0.085,south-southeast,5.9,No
2020/04/28,13:00,0.173,0.160,0.268,0.246,0.256,0.139,0.085,south-southeast,5.5,No
2020/04/28,13:10,0.175,0.162,0.271,0.244,0.256,0.140,0.084,south,6.7,Yes
2020/04/28,13:20,0.175,0.161,0.271,0.246,0.257,0.140,0.086,south,6.1,Yes
2020/04/28,13:30,0.177,0.162,0.272,0.245,0.259,0.140,0.086,south,7.1,No
2020/04/28,13:40,0.177,0.161,0.272,0.247,0.257,0.140,0.085,south,6.8,No
2020/04/28,13:50,0.177,0.162,0.272,0.246,0.261,0.139,0.086,south-southwest,7.7,No
2020/04/28,14:00,0.175,0.161,0.268,0.246,0.257,0.140,0.086,south-southwest,8.6,No
2020/04/28,14:10,0.176,0.162,0.272,0.244,0.255,0.139,0.085,south,7.5,No
2020/04/28,14:20,0.175,0.160,0.270,0.245,0.258,0.139,0.086,south-southwest,6.4,No
2020/04/28,14:30,0.174,0.161,0.268,0.244,0.256,0.139,0.084,south,5.0,No
2020/04/28,14:40,0.176,0.161,0.271,0.245,0.257,0.139,0.084,south,5.1,No
2020/04/28,14:50,0.175,0.161,0.270,0.244,0.257,0.139,0.084,south,4.8,No
2020/04/28,15:00,0.175,0.160,0.272,0.247,0.257,0.138,0.084,south,5.9,No
2020/04/28,15:10,0.175,0.161,0.268,0.243,0.259,0.139,0.085,south,6.3,Yes
2020/04/28,15:20,0.174,0.160,0.270,0.245,0.256,0.139,0.084,south-southeast,7.0,No
2020/04/28,15:30,0.174,0.160,0.269,0.243,0.255,0.138,0.084,south,6.5,No
2020/04/28,15:40,0.175,0.162,0.272,0.245,0.258,0.138,0.084,south-southeast,6.9,Yes
2020/04/28,15:50,0.176,0.161,0.270,0.244,0.256,0.139,0.084,south-southeast,7.5,No
2020/04/28,16:00,0.177,0.161,0.271,0.246,0.259,0.138,0.083,south-southeast,7.2,No
2020/04/28,16:10,0.175,0.162,0.270,0.245,0.256,0.138,0.084,south-southeast,6.3,No
2020/04/28,16:20,0.175,0.162,0.270,0.245,0.259,0.138,0.084,south-southeast,5.9,No
2020/04/28,16:30,0.175,0.161,0.271,0.245,0.258,0.139,0.083,south-southeast,6.9,No
2020/04/28,16:40,0.176,0.160,0.269,0.245,0.259,0.138,0.084,south-southeast,6.5,No
2020/04/28,16:50,0.175,0.161,0.272,0.246,0.258,0.138,0.083,south,5.8,No
2020/04/28,17:00,0.176,0.161,0.271,0.245,0.258,0.139,0.083,south-southeast,5.2,Yes
2020/04/28,17:10,0.175,0.161,0.270,0.246,0.258,0.139,0.084,south-southeast,4.3,No
2020/04/28,17:20,0.175,0.161,0.271,0.244,0.257,0.138,0.085,south-southeast,3.2,No
2020/04/28,17:30,0.174,0.160,0.269,0.244,0.258,0.138,0.083,south-southeast,2.7,No
2020/04/28,17:40,0.175,0.162,0.271,0.245,0.257,0.138,0.083,south,2.4,No
2020/04/28,17:50,0.175,0.160,0.270,0.244,0.258,0.138,0.084,southeast,1.3,No
2020/04/28,18:00,0.175,0.160,0.269,0.245,0.256,0.138,0.084,south-southeast,1.7,No
2020/04/28,18:10,0.175,0.161,0.270,0.246,0.257,0.137,0.084,south-southeast,2.1,No
2020/04/28,18:20,0.174,0.161,0.269,0.244,0.259,0.138,0.084,south,1.5,No
2020/04/28,18:30,0.175,0.161,0.272,0.245,0.257,0.137,0.084,-,CALM,No
2020/04/28,18:40,0.175,0.160,0.272,0.246,0.260,0.138,0.084,south-southeast,1.1,No
2020/04/28,18:50,0.174,0.160,0.268,0.244,0.258,0.138,0.082,-,CALM,No
2020/04/28,19:00,0.175,0.161,0.271,0.245,0.257,0.139,0.083,south,1.7,No
2020/04/28,19:10,0.174,0.160,0.269,0.244,0.258,0.139,0.084,south,1.0,No
2020/04/28,19:20,0.174,0.160,0.269,0.246,0.257,0.139,0.083,-,CALM,No
2020/04/28,19:30,0.174,0.161,0.270,0.244,0.257,0.139,0.084,west,1.0,No
2020/04/28,19:40,0.174,0.159,0.271,0.244,0.258,0.139,0.083,west,1.4,No
2020/04/28,19:50,0.176,0.159,0.268,0.245,0.255,0.138,0.084,west-northwest,2.6,No
2020/04/28,20:00,0.175,0.160,0.270,0.245,0.258,0.138,0.083,northwest,3.0,No
2020/04/28,20:10,0.174,0.160,0.269,0.244,0.257,0.138,0.084,northwest,4.0,No
2020/04/28,20:20,0.175,0.160,0.269,0.245,0.257,0.137,0.083,northwest,4.9,No
2020/04/28,20:30,0.174,0.161,0.271,0.244,0.257,0.138,0.084,northwest,5.6,No
2020/04/28,20:40,0.175,0.160,0.271,0.245,0.257,0.137,0.083,northwest,5.1,No
2020/04/28,20:50,0.175,0.159,0.269,0.244,0.258,0.137,0.083,north-northwest,4.9,No
2020/04/28,21:00,0.175,0.160,0.270,0.245,0.256,0.139,0.083,north-northwest,4.9,No
2020/04/28,21:10,0.175,0.160,0.269,0.245,0.257,0.138,0.084,north-northwest,5.2,No
2020/04/28,21:20,0.175,0.160,0.269,0.244,0.257,0.138,0.084,north-northwest,3.9,No
2020/04/28,21:30,0.174,0.160,0.270,0.244,0.256,0.139,0.084,north-northwest,4.6,No
2020/04/28,21:40,0.175,0.160,0.270,0.245,0.258,0.138,0.084,north-northwest,4.1,No
2020/04/28,21:50,0.175,0.160,0.270,0.244,0.257,0.139,0.083,northwest,4.5,No
2020/04/28,22:00,0.176,0.159,0.271,0.244,0.256,0.138,0.084,north-northwest,3.6,No
2020/04/28,22:10,0.176,0.161,0.272,0.245,0.258,0.138,0.084,north-northwest,3.1,No
2020/04/28,22:20,0.174,0.160,0.271,0.245,0.257,0.138,0.083,north-northwest,3.9,No
2020/04/28,22:30,0.176,0.161,0.271,0.246,0.259,0.138,0.084,northwest,2.6,No
2020/04/28,22:40,0.175,0.160,0.269,0.244,0.257,0.137,0.083,northwest,2.7,No
2020/04/28,22:50,0.175,0.161,0.271,0.244,0.258,0.137,0.084,northwest,2.9,No
2020/04/28,23:00,0.176,0.161,0.271,0.244,0.257,0.137,0.083,north-northwest,2.5,No
2020/04/28,23:10,0.174,0.160,0.270,0.246,0.256,0.140,0.084,northwest,2.2,No
2020/04/28,23:20,0.174,0.160,0.271,0.245,0.258,0.139,0.084,north-northwest,2.5,No
2020/04/28,23:30,0.175,0.160,0.271,0.246,0.256,0.138,0.084,northwest,2.4,No
2020/04/28,23:40,0.174,0.160,0.270,0.245,0.257,0.138,0.083,west-northwest,2.5,No
2020/04/28,23:50,0.174,0.160,0.270,0.245,0.259,0.138,0.084,west-northwest,2.4,No
